Location: Estrella Escondido
(31.8318°N, 104.8079°W)
Time: 17:30:24
(UTC-07:00)

Tiangong 1 - Visible Passes

Search period start: 21 January 2018 00:00
Search period end: 31 January 2018 00:00
Orbit: 261 x 287 km, 42.8° (Epoch: 21 January)

Date Brightness Start Highest point End Pass type
(mag) Time Alt. Az. Time Alt. Az. Time Alt. Az.
22 Jan 3.2 19:00:50 10° NW 19:01:23 15° NW 19:01:23 15° NW visible
23 Jan 2.6 18:59:53 10° WNW 19:01:07 25° WNW 19:01:07 25° WNW visible
24 Jan 2.4 18:59:01 10° WNW 19:00:56 29° SW 19:00:56 29° SW visible
25 Jan 3.4 18:58:27 10° WSW 18:59:54 14° SW 19:00:53 12° SSW visible
